| time (UTC) | temp F | wind direction | speed knots | gust knots | rain 1hr in | rain 24hr in | rain mn in | humidity % | barometer mb |
| 20260510153422 | 56 | 22 | 8.7 | 18.2 | 0.00 | 0.00 | 0.00 | 56 | 1015.5 |
| 20260510150422 | 56 | 12 | 7.8 | 20.0 | 0.00 | 0.00 | 0.00 | 54 | 1015.7 |
| 20260510143424 | 58 | 73 | 8.7 | 18.2 | 0.00 | 0.00 | 0.00 | 53 | 1015.7 |
| 20260510133422 | 57 | 59 | 10.4 | 20.0 | 0.00 | 0.00 | 0.00 | 54 | 1016.0 |
| 20260510130428 | 56 | 46 | 8.7 | 20.0 | 0.00 | 0.00 | 0.00 | 55 | 1016.4 |
| 20260510120425 | 56 | 55 | 7.8 | 19.1 | 0.00 | 0.00 | 0.00 | 59 | 1016.9 |
| 20260510110423 | 56 | 55 | 9.6 | 17.4 | 0.00 | 0.00 | 0.00 | 61 | 1017.6 |
| 20260510103422 | 54 | 55 | 8.7 | 21.7 | 0.00 | 0.00 | 0.00 | 65 | 1017.8 |
| 20260510100420 | 54 | 30 | 7.8 | 16.5 | 0.00 | 0.00 | 0.00 | 66 | 1018.0 |
| 20260510093428 | 54 | 65 | 7.8 | 18.2 | 0.00 | 0.00 | 0.00 | 65 | 1018.1 |
| 20260510090420 | 54 | 33 | 8.7 | 17.4 | 0.00 | 0.00 | 0.00 | 66 | 1018.1 |
| 20260510083423 | 53 | 66 | 7.8 | 16.5 | 0.00 | 0.00 | 0.00 | 70 | 1018.2 |
| 20260510073422 | 52 | 51 | 7.0 | 13.9 | 0.00 | 0.00 | 0.00 | 76 | 1018.2 |
| 20260510063422 | 51 | 13 | 7.0 | 16.5 | 0.00 | 0.00 | 0.00 | 79 | 1018.0 |
| 20260510060419 | 51 | 24 | 7.0 | 17.4 | 0.00 | 0.00 | 0.00 | 80 | 1017.6 |
| 20260510053428 | 51 | 84 | 6.1 | 16.5 | 0.00 | 0.00 | 0.00 | 82 | 1017.4 |
| 20260510050420 | 50 | 34 | 4.3 | 12.2 | 0.00 | 0.00 | 0.00 | 82 | 1017.5 |
| 20260510040424 | 49 | 27 | 2.6 | 9.6 | 0.00 | 0.00 | 0.00 | 85 | 1017.7 |
| 20260510033419 | 49 | 29 | 4.3 | 11.3 | 0.00 | 0.00 | 0.00 | 85 | 1017.6 |
| 20260510030424 | 49 | 64 | 3.5 | 11.3 | 0.00 | 0.00 | 0.00 | 84 | 1017.7 |
| 20260510023419 | 50 | 52 | 4.3 | 10.4 | 0.00 | 0.00 | 0.00 | 84 | 1017.8 |
| 20260510020411 | 50 | 37 | 4.3 | 9.6 | 0.00 | 0.00 | 0.00 | 85 | 1018.0 |
| 20260510013416 | 48 | 38 | 1.7 | 5.2 | 0.00 | 0.00 | 0.00 | 86 | 1018.1 |
| 20260510010419 | 47 | 11 | 0.9 | 3.5 | 0.00 | 0.00 | 0.00 | 86 | 1018.1 |
| 20260510003409 | 47 | 0 | 0.9 | 5.2 | 0.00 | 0.00 | 0.00 | 86 | 1018.2 |
| 20260510000411 | 47 | 11 | 1.7 | 5.2 | 0.00 | 0.00 | 0.00 | 85 | 1018.3 |
| 20260509230415 | 50 | 13 | 1.7 | 7.0 | 0.00 | 0.00 | 0.00 | 83 | 1018.5 |
| 20260509223410 | 51 | 40 | 3.5 | 7.8 | 0.00 | 0.00 | 0.00 | 82 | 1018.2 |
| 20260509220419 | 51 | 13 | 4.3 | 10.4 | 0.00 | 0.00 | 0.00 | 82 | 1018.0 |
| 20260509213404 | 52 | 40 | 4.3 | 9.6 | 0.00 | 0.00 | 0.00 | 79 | 1017.7 |
| 20260509210406 | 53 | 48 | 5.2 | 13.9 | 0.00 | 0.00 | 0.00 | 77 | 1017.8 |
| 20260509203404 | 54 | 68 | 4.3 | 11.3 | 0.00 | 0.00 | 0.00 | 73 | 1017.8 |
| 20260509200415 | 55 | 53 | 4.3 | 9.6 | 0.00 | 0.00 | 0.00 | 56 | 1017.3 |
| 20260509193406 | 57 | 57 | 5.2 | 9.6 | 0.00 | 0.00 | 0.00 | 51 | 1016.9 |
| 20260509190411 | 59 | 47 | 3.5 | 9.6 | 0.00 | 0.00 | 0.00 | 46 | 1016.5 |
| 20260509183414 | 62 | 112 | 7.0 | 13.9 | 0.00 | 0.00 | 0.00 | 38 | 1016.2 |
| 20260509180405 | 65 | 51 | 7.0 | 15.6 | 0.00 | 0.00 | 0.00 | 36 | 1015.9 |
| 20260509173421 | 66 | 90 | 10.4 | 17.4 | 0.00 | 0.00 | 0.00 | 35 | 1015.9 |
| 20260509170405 | 67 | 82 | 9.6 | 16.5 | 0.00 | 0.00 | 0.00 | 37 | 1015.7 |
| 20260509163414 | 69 | 95 | 7.8 | 15.6 | 0.00 | 0.00 | 0.00 | 36 | 1015.7 |